AEROCUBE 4.5B

Last updated on Sat Apr 13 2024 01:03:32 GMT+0100 (British Summer Time)

1 38768U 12048L 24103.37394197 .00026445 00000+0 11015-2 0 9990 2 38768 64.6562 95.3502 0089855 30.1868 330.4390 15.19990562251409
UTC large
Height (km)
Speed (km/s)
/
Latitude / Longitude
Inclination (degrees)
Orbital Period (minutes)
Azimuth
Elevation
Range (km)
Doppler Factor

Next 0 passes for location: London (51.5072 / 0.1276)

Sorry there are no passes over London.